This demonstration page uses our WeatherBlox Daily Observations layout. Learn more.

Left ArrowRight Arrow

39.92423, -83.80882

Hourly Observations for March 7, 2017

Temp ( °F °C ) Dew Point ( °F °C ) Humidity (%) Winds ( mph kmh ) Pressure ( in mb ) Visibility ( mi km ) Precip ( " mm )
12:56 am 00:56 Mostly Cloudy 55 12.8 48 8.9 77 77 S 13 20 29.97 1015 10 16.0934 0 0
1:56 am 01:56 Cloudy 55 12.8 48 8.9 77 77 S 9 15 29.97 1015 10 16.0934 0 0
2:56 am 02:56 Cloudy 57 13.9 47 8.3 69 69 S 14 22 29.97 1015 10 16.0934 0 0
3:56 am 03:56 Mostly Cloudy 57 13.9 47 8.3 69 69 S 13 20 29.94 1014 10 16.0934 0 0
4:56 am 04:56 Mostly Cloudy 56 13.3 47 8.3 72 72 S 14 22 29.92 1013 10 16.0934 0 0.0254
5:56 am 05:56 Cloudy with Rain 54 12.2 49 9.4 83 83 S 13 20 29.92 1013 9 14.48406 0.07 1.778
6:56 am 06:56 Cloudy with Rain 56 13.3 49 9.4 77 77 SSW 17 28 29.93 1013 10 16.0934 0.01 0.254
7:37 am 07:37 Cloudy with Rain 54 12 52 11 94 94 SW 14 22 29.97 1015 5 8.0467 0.12 3.048
7:56 am 07:56 Cloudy with Light Rain 53 11.7 51 10.6 93 93 SW 13 20 29.99 1016 6 9.65604 0.15 3.81
8:44 am 08:44 Cloudy 54 12 52 11 94 94 SSW 18 30 29.97 1015 10 16.0934 0.02 0.508
8:56 am 08:56 Cloudy with Light Rain 54 12.2 51 10.6 90 90 SSW 18 30 29.97 1015 10 16.0934 0.02 0.508
9:56 am 09:56 Cloudy with Light Rain 54 12.2 52 11.1 93 93 SSW 17 28 29.96 1015 10 16.0934 0 0.0254
10:12 am 10:12 Cloudy with Light Rain 55 13 54 12 94 94 SSW 14 22 29.97 1015 10 16.0934 0.01 0.254
10:56 am 10:56 Cloudy with Light Rain 56 13.3 54 12.2 93 93 SSW 15 24 29.96 1015 10 16.0934 0.01 0.254
11:13 am 11:13 Cloudy 55 13 54 12 94 94 SSW 16 26 29.94 1014 10 16.0934 0 0.0254
11:56 am 11:56 Cloudy with Light Rain 56 13.3 53 11.7 90 90 SSW 17 28 29.93 1014 10 16.0934 0 0.0254
12:56 pm 12:56 Cloudy with Light Rain 57 13.9 53 11.7 87 87 SW 20 31 29.92 1013 10 16.0934 0 0.0254
1:18 pm 13:18 Cloudy 57 14 54 12 88 88 SSW 16 26 29.91 1013 10 16.0934 0 0.0254
1:49 pm 13:49 Cloudy 55 13 54 12 94 94 SSW 15 24 29.91 1013 10 16.0934 0 0.0254
1:56 pm 13:56 Cloudy 56 13.3 53 11.7 90 90 SW 17 28 29.9 1013 9 14.48406 0 0.0254
2:42 pm 14:42 Cloudy with Light Rain 52 11 50 10 94 94 W 20 31 29.91 1013 2.5 4.02335 0.1 2.54
2:54 pm 14:54 Cloudy with Light Rain 52 11 48 9 88 88 W 18 30 29.91 1013 2.5 4.02335 0.1 2.54
2:56 pm 14:56 Cloudy with Light Rain 51 10.6 49 9.4 92 92 W 18 30 29.92 1013 2.5 4.02335 0.11 2.794
3:04 pm 15:04 Cloudy with Light Rain 52 11 48 9 88 88 W 20 31 29.91 1013 1.75 2.816345 0 0.0254
3:12 pm 15:12 Cloudy with Light Rain 52 11 48 9 88 88 WSW 14 22 29.91 1013 2.5 4.02335 0 0.0254
3:19 pm 15:19 Cloudy with Light Rain 52 11 48 9 88 88 WSW 15 24 29.91 1013 7 11.26538 0 0.0254
3:28 pm 15:28 Cloudy 52 11 48 9 88 88 WSW 12 19 29.91 1013 9 14.48406 0 0.0254
3:56 pm 15:56 Cloudy with Light Rain 51 10.6 48 8.9 89 89 WSW 13 20 29.92 1013 6 9.65604 0 0.0254
4:26 pm 16:26 Cloudy with Light Rain 50 10 48 9 94 94 WSW 9 15 29.91 1013 1.75 2.816345 0.01 0.254
4:33 pm 16:33 Cloudy with Rain 50 10 48 9 94 94 WSW 10 17 29.91 1013 2 3.21868 0.03 0.762
4:51 pm 16:51 Cloudy with Light Rain 50 10 48 9 94 94 WSW 9 15 29.91 1013 2 3.21868 0.05 1.27
4:56 pm 16:56 Cloudy with Rain 50 10 49 9.4 96 96 WSW 9 15 29.93 1014 1.75 2.816345 0.06 1.524
5:11 pm 17:11 Cloudy with Light Rain 50 10 48 9 94 94 WSW 12 19 29.94 1014 2 3.21868 0.02 0.508
5:29 pm 17:29 Cloudy with Light Rain 48 9 45 7 87 87 WNW 17 28 29.97 1015 3 4.82802 0.05 1.27
5:34 pm 17:34 Cloudy with Light Rain 48 9 45 7 87 87 WNW 17 28 29.97 1015 2.5 4.02335 0.05 1.27
5:43 pm 17:43 Cloudy with Light Rain 46 8 43 6 87 87 NW 13 20 29.97 1015 4 6.43736 0.06 1.524
5:56 pm 17:56 Cloudy with Light Rain 47 8.3 42 5.6 83 83 WNW 12 19 29.96 1015 9 14.48406 0.06 1.524
6:08 pm 18:08 Cloudy with Light Rain 46 8 43 6 87 87 WNW 10 17 29.97 1015 10 16.0934 0 0.0254
6:56 pm 18:56 Cloudy 47 8.3 41 5 80 80 W 9 15 29.98 1015 10 16.0934 0 0.0254
7:56 pm 19:56 Cloudy 47 8.3 41 5 80 80 WNW 9 15 30 1016 10 16.0934 0 0
8:56 pm 20:56 Mostly Clear 45 7.2 35 1.7 68 68 WNW 15 24 30.05 1018 10 16.0934 0 0
10:56 pm 22:56 Mostly Clear 41 5 34 1.1 76 76 WSW 10 17 30.12 1020 10 16.0934 0 0
11:56 pm 23:56 Clear 40 4.4 34 1.1 79 79 WSW 10 17 30.12 1020 10 16.0934 0 0

Powered by AerisWeather